DW6417 Weather Reports


time (UTC)temp
C
wind
direction
speed
KPH
gust
KPH
rain 1hr
cm
rain 24hr
cm
rain mn
cm
humidity
%
barometer
mb
20260506070416 9 355 3.2 8.0 0.18 1.17 0.99 92 1005.0
20260506062417 8 54 4.8 12.9 0.08 1.02 0.86 92 1004.9
20260506061917 8 34 4.8 12.9 0.10 1.02 0.86 92 1004.9
20260506061624 8 39 4.8 9.7 0.05 0.99 0.81 92 1004.8
20260506061417 8 24 4.8 9.7 0.08 0.99 0.84 92 1004.9
20260506060625 8 342 4.8 12.9 0.08 0.99 0.81 92 1004.7
20260506060417 8 9 4.8 12.9 0.05 0.99 0.81 92 1004.7
20260506050917 9 5 3.2 9.7 0.08 0.91 0.76 92 1004.6
20260506050625 9 29 3.2 6.4 0.05 0.89 0.74 92 1004.6
20260506050417 9 12 3.2 12.9 0.05 0.89 0.74 92 1004.6
20260506044625 9 12 4.8 12.9 0.08 0.89 0.71 92 1004.6
20260506044417 9 15 4.8 12.9 0.08 0.89 0.71 92 1004.6
20260506043917 9 25 4.8 12.9 0.10 0.89 0.71 92 1004.6
20260506043625 9 62 4.8 12.9 0.13 0.89 0.71 92 1004.6
20260506043417 9 27 4.8 12.9 0.13 0.89 0.71 92 1004.6
20260506042917 9 18 4.8 12.9 0.13 0.89 0.71 92 1004.6
20260506042624 9 26 4.8 12.9 0.13 0.86 0.71 92 1004.6
20260506042417 9 25 4.8 12.9 0.13 0.86 0.71 92 1004.6
20260506041917 9 25 3.2 9.7 0.15 0.86 0.71 92 1004.6
20260506041624 9 55 3.2 9.7 0.15 0.86 0.71 92 1004.6
20260506041417 9 3 3.2 12.9 0.15 0.86 0.71 92 1004.6
20260506040917 9 16 3.2 12.9 0.15 0.84 0.69 92 1004.6
20260506040625 9 5 3.2 8.0 0.15 0.84 0.69 92 1004.7
20260506040417 9 38 3.2 8.0 0.15 0.84 0.69 92 1004.7
20260506035917 9 21 3.2 9.7 0.15 0.84 0.66 92 1004.7
20260506035624 9 4 3.2 8.0 0.15 0.84 0.66 92 1004.6
20260506035417 9 359 3.2 9.7 0.15 0.84 0.66 92 1004.6
20260506034917 9 357 4.8 8.0 0.15 0.81 0.64 92 1004.7
20260506034624 8 355 4.8 8.0 0.15 0.81 0.64 92 1004.6
20260506034418 8 354 4.8 9.7 0.15 0.81 0.64 92 1004.6
20260506033917 8 351 3.2 9.7 0.15 0.79 0.61 92 1004.8
20260506033625 8 348 3.2 6.4 0.15 0.79 0.61 92 1004.7
20260506032624 8 359 3.2 8.0 0.15 0.76 0.58 92 1004.7
20260506032416 8 358 3.2 12.9 0.15 0.76 0.58 92 1004.7
20260506031625 8 344 3.2 12.9 0.15 0.74 0.56 92 1004.8
20260506031417 8 356 4.8 14.5 0.15 0.74 0.56 92 1004.8
20260506030917 8 1 3.2 14.5 0.15 0.71 0.53 92 1004.8
20260506030418 8 349 3.2 6.4 0.15 0.71 0.53 92 1004.8
20260506025918 8 358 3.2 12.9 0.15 0.71 0.51 92 1004.9
20260506025625 8 349 4.8 12.9 0.15 0.69 0.51 92 1004.9
20260506025417 8 7 3.2 12.9 0.15 0.69 0.51 92 1004.9
20260506024917 8 3 3.2 8.0 0.15 0.69 0.51 92 1005.0
20260506024624 8 12 3.2 8.0 0.18 0.66 0.48 92 1005.1
20260506024417 8 3 3.2 12.9 0.15 0.69 0.48 92 1005.0
20260506023917 8 9 4.8 12.9 0.20 0.69 0.48 92 1005.0
20260506023625 8 22 4.8 9.7 0.20 0.64 0.46 92 1005.1
20260506023419 8 8 4.8 12.9 0.20 0.69 0.46 92 1005.1
20260506022917 8 350 4.8 12.9 0.20 0.66 0.43 91 1005.0
20260506022626 8 348 4.8 11.3 0.23 0.61 0.43 91 1005.1
20260506022417 8 343 4.8 12.9 0.20 0.66 0.43 91 1005.1
20260506021917 8 7 3.2 12.9 0.20 0.66 0.43 91 1005.1
20260506021625 8 12 3.2 11.3 0.18 0.56 0.38 91 1005.2
20260506020917 8 9 3.2 11.3 0.18 0.61 0.38 91 1005.2
20260506020625 8 22 3.2 8.0 0.20 0.56 0.38 91 1005.2
20260506020417 8 2 3.2 12.9 0.20 0.61 0.38 91 1005.2
20260506015625 8 7 3.2 6.4 0.18 0.58 0.33 91 1005.3
20260506014917 8 11 4.8 12.9 0.18 0.56 0.33 91 1005.2
20260506014625 8 358 3.2 9.7 0.15 0.53 0.30 91 1005.2
20260506014417 8 7 3.2 9.7 0.15 0.53 0.30 91 1005.2
20260506013917 9 356 3.2 8.0 0.15 0.53 0.28 91 1005.3
20260506013417 9 14 3.2 8.0 0.15 0.53 0.25 91 1005.3
20260506012625 9 49 3.2 8.0 0.13 0.46 0.23 91 1005.4
20260506011917 9 8 3.2 14.5 0.13 0.51 0.23 91 1005.4
20260506011625 9 353 4.8 14.5 0.10 0.43 0.20 91 1005.5
20260506011417 9 17 4.8 14.5 0.10 0.51 0.20 91 1005.4
20260506010917 9 22 3.2 8.0 0.10 0.51 0.20 91 1005.4
20260506010417 9 12 4.8 9.7 0.10 0.48 0.18 91 1005.4
20260506005917 9 9 4.8 14.5 0.10 0.51 0.18 91 1005.5
20260506005417 9 4 4.8 14.5 0.10 0.48 0.15 91 1005.5
20260506004919 9 352 4.8 19.3 0.08 0.46 0.15 91 1005.5
20260506004625 9 356 4.8 19.3 0.08 0.46 0.15 91 1005.6
20260506004417 9 12 4.8 19.3 0.08 0.46 0.15 91 1005.6
20260506003917 9 19 4.8 14.5 0.05 0.43 0.13 90 1005.5
20260506003626 9 67 4.8 14.5 0.05 0.43 0.13 91 1005.6
20260506003417 9 19 4.8 14.5 0.05 0.43 0.13 91 1005.6
20260506002625 9 49 3.2 8.0 0.05 0.43 0.10 91 1005.7
20260506002417 9 34 4.8 14.5 0.05 0.43 0.10 91 1005.7
20260506001917 9 17 4.8 14.5 0.05 0.43 0.10 91 1005.6
20260506001625 9 29 4.8 11.3 0.05 0.43 0.10 91 1005.7
20260506001417 9 5 4.8 11.3 0.05 0.43 0.10 91 1005.7
20260506000917 9 16 3.2 9.7 0.05 0.43 0.10 91 1005.7
20260506000625 9 2 3.2 8.0 0.05 0.41 0.08 90 1005.8
20260506000417 9 28 3.2 11.3 0.05 0.41 0.08 90 1005.8
20260505235917 9 6 4.8 12.9 0.05 0.41 0.08 90 1005.8
20260505235625 9 351 4.8 12.9 0.03 0.38 0.05 90 1005.8
20260505235417 9 13 4.8 12.9 0.03 0.38 0.05 90 1005.8
20260505234917 9 28 3.2 9.7 0.03 0.38 0.05 90 1005.8
20260505234417 9 19 3.2 9.7 0.03 0.38 0.05 90 1005.9
20260505233917 9 18 3.2 9.7 0.05 0.38 0.05 90 1005.9
20260505233625 9 17 3.2 6.4 0.05 0.38 0.05 90 1005.9
20260505233418 9 23 3.2 8.0 0.05 0.38 0.05 90 1005.9
20260505232917 9 43 3.2 8.0 0.03 0.36 0.05 90 1006.0
20260505231917 9 56 3.2 11.3 0.03 0.36 0.05 90 1006.1
20260505231625 9 61 3.2 11.3 0.03 0.36 0.05 90 1006.0
20260505231419 9 18 3.2 14.5 0.03 0.36 0.05 90 1006.0
20260505230625 9 358 4.8 8.0 0.05 0.36 0.05 90 1006.0
20260505225625 10 12 3.2 6.4 0.05 0.36 0.05 90 1006.0
20260505225417 10 12 3.2 8.0 0.05 0.36 0.05 90 1006.0
20260505224917 10 11 3.2 8.0 0.05 0.36 0.05 90 1006.1
20260505224625 10 12 3.2 6.4 0.05 0.36 0.05 90 1006.2
20260505224417 10 13 3.2 14.5 0.05 0.36 0.05 90 1006.2
20260505223917 10 22 3.2 14.5 0.03 0.33 0.03 90 1006.3
20260505223625 10 358 3.2 8.0 0.03 0.33 0.03 90 1006.3
20260505222917 10 11 4.8 14.5 0.03 0.33 0.03 90 1006.4
20260505222625 10 1 4.8 14.5 0.03 0.33 0.03 90 1006.3
20260505222418 10 10 4.8 14.5 0.03 0.33 0.03 90 1006.3
20260505221625 10 353 4.8 9.7 0.00 0.33 0.00 90 1006.3
20260505221417 10 26 4.8 14.5 0.00 0.33 0.00 90 1006.3
20260505220917 10 24 4.8 14.5 0.00 0.33 0.00 90 1006.3
20260505220625 10 49 3.2 14.5 0.00 0.33 0.00 90 1006.3
20260505220418 10 14 3.2 14.5 0.00 0.33 0.00 90 1006.3
20260505215922 10 8 4.8 9.7 0.00 0.33 0.00 90 1006.4
20260505215625 10 17 3.2 9.7 0.00 0.33 0.33 90 1006.5
20260505215418 10 5 3.2 12.9 0.00 0.33 0.33 90 1006.5
20260505214917 10 16 3.2 12.9 0.00 0.33 0.33 90 1006.5
20260505214625 10 28 1.6 6.4 0.00 0.33 0.33 90 1006.5
20260505213917 10 27 4.8 14.5 0.03 0.33 0.33 90 1006.4
20260505213626 10 22 4.8 11.3 0.03 0.33 0.33 90 1006.5
20260505213417 10 29 4.8 11.3 0.03 0.33 0.33 90 1006.4
20260505212917 10 11 4.8 11.3 0.03 0.33 0.33 90 1006.5
20260505212417 10 357 4.8 9.7 0.03 0.33 0.33 90 1006.5
20260505211625 10 22 4.8 12.9 0.03 0.33 0.33 90 1006.6
20260505211417 10 29 4.8 14.5 0.03 0.33 0.33 90 1006.6
20260505210918 10 26 4.8 14.5 0.03 0.33 0.33 90 1006.6
20260505210625 10 63 4.8 14.5 0.05 0.33 0.33 90 1006.6
20260505210418 10 20 4.8 14.5 0.03 0.33 0.33 90 1006.6
20260505205625 10 47 4.8 14.5 0.05 0.33 0.33 90 1006.8
20260505205417 10 41 4.8 14.5 0.05 0.33 0.33 90 1006.8
20260505204917 10 26 4.8 19.3 0.05 0.33 0.33 90 1006.8
20260505204417 10 10 4.8 19.3 0.05 0.33 0.33 90 1006.7
20260505203917 10 4 3.2 8.0 0.05 0.33 0.30 90 1006.8
20260505203625 10 3 3.2 8.0 0.05 0.33 0.30 90 1006.7
20260505203417 10 4 4.8 9.7 0.05 0.33 0.30 90 1006.7
20260505202917 10 14 3.2 9.7 0.05 0.33 0.30 90 1006.8
20260505202625 10 2 3.2 8.0 0.05 0.33 0.30 90 1006.8
20260505201918 10 15 3.2 12.9 0.05 0.33 0.30 90 1006.7
20260505200917 10 42 3.2 12.9 0.05 0.33 0.30 90 1006.7
20260505200625 10 52 4.8 12.9 0.05 0.30 0.28 90 1006.7
20260505200417 10 32 3.2 12.9 0.05 0.30 0.28 90 1006.7
20260505195625 10 28 3.2 8.0 0.05 0.30 0.28 90 1006.7
20260505194917 10 60 3.2 14.5 0.03 0.28 0.25 90 1006.7
20260505194625 10 66 3.2 14.5 0.03 0.28 0.25 90 1006.7
20260505194417 10 53 3.2 14.5 0.03 0.28 0.25 90 1006.7
20260505193918 10 49 3.2 9.7 0.03 0.28 0.25 89 1006.7
20260505193625 10 48 1.6 9.7 0.03 0.28 0.25 89 1006.7
20260505193417 10 42 3.2 9.7 0.03 0.28 0.25 89 1006.7
20260505192917 10 46 3.2 8.0 0.00 0.25 0.23 89 1006.7
20260505192625 10 51 3.2 8.0 0.00 0.25 0.23 89 1006.7
20260505192417 10 41 3.2 9.7 0.00 0.25 0.23 89 1006.7
20260505191917 10 33 3.2 9.7 0.00 0.28 0.23 89 1006.6
20260505191418 10 49 3.2 11.3 0.00 0.28 0.23 89 1006.7
20260505190917 10 63 3.2 11.3 0.00 0.30 0.23 89 1006.7
20260505190625 10 69 3.2 8.0 0.00 0.25 0.23 89 1006.6
20260505190417 10 70 3.2 8.0 0.00 0.30 0.23 89 1006.6
20260505185917 10 70 3.2 8.0 0.00 0.30 0.23 88 1006.5
20260505185625 10 70 3.2 8.0 0.00 0.30 0.23 88 1006.5
20260505184917 10 39 4.8 14.5 0.00 0.30 0.23 88 1006.5
20260505184625 10 351 4.8 14.5 0.00 0.30 0.23 88 1006.5
20260505184417 10 42 4.8 17.7 0.00 0.30 0.23 88 1006.5
20260505183918 10 43 4.8 17.7 0.00 0.30 0.23 87 1006.5
20260505183625 10 45 4.8 11.3 0.00 0.30 0.23 88 1006.5
20260505183417 10 33 4.8 12.9 0.00 0.30 0.23 88 1006.5
20260505182918 10 36 4.8 12.9 0.00 0.30 0.23 88 1006.6
20260505182625 10 349 4.8 11.3 0.00 0.30 0.23 87 1006.5
20260505182417 10 37 4.8 12.9 0.00 0.30 0.23 87 1006.5
20260505181625 10 78 4.8 14.5 0.00 0.30 0.23 88 1006.7
20260505180918 10 64 3.2 14.5 0.00 0.30 0.23 88 1006.7
20260505180625 11 61 6.4 14.5 0.00 0.30 0.23 88 1006.7
20260505180418 10 50 4.8 14.5 0.00 0.30 0.23 88 1006.7
20260505175917 11 48 6.4 17.7 0.00 0.30 0.23 88 1006.7
20260505175625 11 45 6.4 17.7 0.00 0.30 0.23 88 1006.7
20260505175418 11 51 6.4 17.7 0.00 0.30 0.23 88 1006.7
20260505174918 11 27 4.8 16.1 0.00 0.30 0.23 88 1006.7
20260505174625 11 353 3.2 8.0 0.00 0.30 0.23 88 1006.7
20260505174417 11 357 3.2 12.9 0.00 0.30 0.23 88 1006.7
20260505173625 11 344 4.8 12.9 0.00 0.30 0.23 87 1006.7
20260505172918 11 21 3.2 9.7 0.00 0.30 0.23 87 1006.7
20260505172625 11 12 3.2 8.0 0.00 0.30 0.23 87 1006.8
20260505172418 11 31 4.8 19.3 0.00 0.30 0.23 87 1006.8
20260505171917 11 41 4.8 19.3 0.00 0.30 0.23 87 1006.8
20260505171418 11 47 4.8 14.5 0.00 0.30 0.23 87 1006.8
20260505170918 11 27 4.8 16.1 0.00 0.30 0.23 87 1006.8
20260505165918 11 12 4.8 14.5 0.00 0.30 0.23 87 1006.8
20260505165625 11 344 4.8 14.5 0.00 0.30 0.23 87 1006.8
20260505165417 11 31 4.8 14.5 0.00 0.30 0.23 87 1006.8
20260505164418 11 53 4.8 16.1 0.00 0.30 0.23 87 1006.7
20260505163918 11 49 6.4 17.7 0.00 0.30 0.23 87 1006.7
20260505163625 11 51 6.4 17.7 0.00 0.30 0.23 87 1006.6
20260505163419 11 54 6.4 17.7 0.00 0.30 0.23 87 1006.6
20260505162918 11 61 4.8 14.5 0.00 0.30 0.23 87 1006.7
20260505162625 11 66 3.2 8.0 0.00 0.30 0.23 87 1006.7
20260505162418 11 52 3.2 8.0 0.00 0.30 0.23 87 1006.7
20260505161918 11 41 3.2 8.0 0.00 0.30 0.23 87 1006.7
20260505161625 11 49 4.8 8.0 0.00 0.30 0.23 86 1006.8
20260505161419 11 29 4.8 9.7 0.00 0.30 0.23 86 1006.8
20260505160918 11 23 4.8 12.9 0.00 0.30 0.23 86 1006.8
20260505160625 11 1 4.8 12.9 0.00 0.30 0.23 86 1006.8
20260505160418 11 41 4.8 12.9 0.00 0.30 0.23 86 1006.8
20260505152625 11 64 4.8 17.7 0.00 0.30 0.23 86 1007.2
20260505152418 11 61 4.8 17.7 0.00 0.30 0.23 86 1007.2
20260505151917 11 63 4.8 14.5 0.00 0.30 0.23 86 1007.2
20260505151626 11 56 3.2 14.5 0.00 0.30 0.23 87 1007.3
20260505150418 11 60 4.8 16.1 0.00 0.30 0.23 87 1007.2
20260505140625 11 44 4.8 14.5 0.00 0.30 0.23 87 1007.5
20260505140418 11 55 4.8 14.5 0.00 0.30 0.23 87 1007.5
20260505124918 11 44 4.8 16.1 0.00 0.30 0.23 87 1007.9
20260505124625 11 68 4.8 14.5 0.00 0.30 0.23 88 1008.0
20260505124418 11 28 4.8 14.5 0.00 0.30 0.23 88 1008.0
20260505123917 11 24 4.8 12.9 0.00 0.30 0.23 88 1008.0
20260505122917 11 57 3.2 9.7 0.00 0.30 0.23 89 1008.0
20260505122625 11 57 3.2 8.0 0.00 0.30 0.23 89 1008.0
20260505122418 11 58 3.2 8.0 0.00 0.30 0.23 89 1008.0
20260505121918 11 58 3.2 6.4 0.00 0.30 0.23 89 1008.0
20260505121625 11 57 3.2 4.8 0.00 0.30 0.23 89 1008.1
20260505121418 11 58 3.2 6.4 0.00 0.30 0.23 89 1008.1
20260505120918 11 52 4.8 12.9 0.00 0.30 0.23 88 1008.0
20260505120626 11 59 4.8 12.9 0.00 0.30 0.23 89 1008.1
20260505120418 11 47 4.8 12.9 0.00 0.30 0.23 89 1008.1
20260505115918 11 50 4.8 14.5 0.00 0.30 0.23 88 1008.0
20260505115625 11 66 4.8 14.5 0.00 0.30 0.23 88 1008.1
20260505115418 11 51 4.8 14.5 0.00 0.30 0.23 88 1008.1
20260505114917 11 46 4.8 14.5 0.00 0.30 0.23 90 1008.1
20260505114418 11 69 4.8 14.5 0.00 0.30 0.23 89 1008.1
20260505113918 10 69 4.8 16.1 0.00 0.30 0.23 90 1008.2
20260505113626 10 47 4.8 16.1 0.03 0.30 0.23 89 1008.1
20260505113418 10 48 6.4 16.1 0.03 0.30 0.23 89 1008.1
20260505112625 10 41 4.8 14.5 0.03 0.30 0.23 89 1008.2
20260505112418 10 42 4.8 14.5 0.03 0.30 0.23 89 1008.2
20260505111918 10 33 4.8 17.7 0.03 0.30 0.23 90 1008.2
20260505111625 10 47 6.4 17.7 0.03 0.30 0.23 89 1008.1
20260505111417 10 34 6.4 17.7 0.03 0.30 0.23 89 1008.1
20260505110917 10 47 4.8 16.1 0.03 0.30 0.23 90 1008.2
20260505110626 10 73 4.8 16.1 0.05 0.30 0.23 90 1008.2
20260505110418 10 56 4.8 16.1 0.05 0.30 0.23 90 1008.2
20260505101627 10 66 3.2 9.7 0.05 0.28 0.23 90 1008.5
20260505101417 10 66 3.2 9.7 0.05 0.28 0.23 90 1008.5
20260505100918 10 68 3.2 9.7 0.05 0.28 0.23 90 1008.5
20260505100626 10 69 3.2 8.0 0.03 0.25 0.20 89 1008.5
20260505100417 10 48 4.8 14.5 0.03 0.25 0.20 89 1008.5
20260505095625 10 51 4.8 14.5 0.00 0.23 0.18 89 1008.5
20260505095418 10 48 3.2 14.5 0.00 0.23 0.18 89 1008.5
20260505094917 10 41 3.2 9.7 0.00 0.23 0.18 90 1008.5
20260505094625 10 40 3.2 9.7 0.00 0.23 0.18 89 1008.6
20260505094418 10 42 3.2 12.9 0.00 0.23 0.18 89 1008.6
20260505093919 10 43 3.2 12.9 0.00 0.23 0.18 89 1008.6
20260505093625 10 42 3.2 9.7 0.00 0.23 0.18 89 1008.6
20260505093418 10 42 3.2 12.9 0.00 0.23 0.18 89 1008.6
20260505092918 10 41 3.2 12.9 0.00 0.23 0.18 89 1008.6
20260505092625 10 41 3.2 8.0 0.00 0.23 0.18 89 1008.6
20260505091918 10 42 4.8 9.7 0.00 0.23 0.18 89 1008.6
20260505091625 10 41 4.8 9.7 0.00 0.23 0.18 89 1008.6
20260505091418 10 44 4.8 9.7 0.00 0.23 0.18 89 1008.6
20260505090918 10 46 4.8 9.7 0.00 0.23 0.18 90 1008.5
20260505090625 10 46 4.8 9.7 0.00 0.23 0.18 90 1008.6
20260505085918 10 41 4.8 14.5 0.00 0.23 0.18 89 1008.5
20260505085625 10 45 4.8 12.9 0.00 0.23 0.18 89 1008.5
20260505085418 10 34 3.2 12.9 0.00 0.23 0.18 89 1008.5
20260505084918 10 30 3.2 8.0 0.00 0.23 0.18 89 1008.4
20260505084626 10 30 3.2 8.0 0.00 0.23 0.18 89 1008.4
20260505083919 10 36 4.8 12.9 0.00 0.23 0.18 89 1008.4
20260505083627 10 36 4.8 12.9 0.03 0.23 0.18 89 1008.4
20260505083418 10 28 4.8 12.9 0.03 0.23 0.18 89 1008.4
20260505082918 10 26 3.2 12.9 0.03 0.23 0.18 89 1008.5
20260505082625 11 37 3.2 11.3 0.03 0.23 0.18 89 1008.5
20260505082418 11 40 4.8 11.3 0.03 0.23 0.18 89 1008.5
20260505081625 11 41 6.4 12.9 0.03 0.23 0.18 90 1008.4
20260505081418 11 44 4.8 12.9 0.03 0.23 0.18 90 1008.4
20260505080918 11 46 4.8 9.7 0.03 0.23 0.18 90 1008.3
20260505080626 11 45 4.8 8.0 0.03 0.23 0.18 90 1008.4
20260505080418 11 45 3.2 8.0 0.03 0.23 0.18 90 1008.4
20260505075919 11 43 3.2 6.4 0.03 0.23 0.18 90 1008.3
20260505075625 11 42 3.2 6.4 0.03 0.23 0.18 90 1008.3
20260505075418 11 43 3.2 12.9 0.03 0.23 0.18 90 1008.3
20260505074918 11 42 3.2 12.9 0.03 0.23 0.18 90 1008.3
20260505074625 11 41 1.6 12.9 0.03 0.23 0.18 90 1008.4
20260505074417 11 40 3.2 12.9 0.03 0.23 0.18 90 1008.4
20260505073917 11 39 4.8 12.9 0.03 0.23 0.18 90 1008.3
20260505073626 11 39 4.8 12.9 0.00 0.23 0.15 90 1008.3
20260505073418 11 39 4.8 12.9 0.00 0.23 0.15 90 1008.3
20260505072918 11 40 3.2 11.3 0.00 0.23 0.15 90 1008.3
20260505072418 11 41 3.2 9.7 0.00 0.23 0.15 90 1008.2
20260505071919 11 40 1.6 9.7 0.00 0.23 0.15 90 1008.3
20260505071625 11 40 3.2 8.0 0.00 0.23 0.15 90 1008.3
20260505071418 11 40 1.6 8.0 0.00 0.23 0.15 90 1008.3
20260505070918 11 40 3.2 6.4 0.00 0.23 0.15 90 1008.3
20260505070625 11 39 3.2 6.4 0.00 0.23 0.15 90 1008.3